TimeADT,TemperatureF,Dew PointF,Humidity,Sea Level PressureIn,VisibilityMPH,Wind Direction,Wind SpeedMPH,Gust SpeedMPH,PrecipitationIn,Events,Conditions,WindDirDegrees,DateUTC
12:00 AM,62.6,53.6,72,29.35,15.0,SW,20.7,40.3,N/A,,Scattered Clouds,220,2013-11-02 03:00:00
1:00 AM,60.8,53.6,77,29.36,15.0,SW,28.8,40.3,N/A,,Scattered Clouds,220,2013-11-02 04:00:00
2:00 AM,59.0,53.6,82,29.37,15.0,SW,21.9,38.0,N/A,,Scattered Clouds,220,2013-11-02 05:00:00
3:00 AM,58,52,73,29.38,15,SW,19.6,,,,Partly Cloudy,220,2013-11-02 06:00:00
3:00 AM,59.0,51.8,77,29.38,15.0,SW,19.6,31.1,N/A,,Scattered Clouds,220,2013-11-02 06:00:00
4:00 AM,55.4,51.8,88,29.43,15.0,SW,18.4,29.9,N/A,,Partly Cloudy,230,2013-11-02 07:00:00
5:00 AM,55.4,50.0,82,29.46,15.0,SW,16.1,26.5,N/A,,Partly Cloudy,230,2013-11-02 08:00:00
6:00 AM,55.4,50.0,82,29.51,15.0,SW,15.0,26.5,N/A,,Mostly Cloudy,230,2013-11-02 09:00:00
7:00 AM,53.6,42.8,67,29.56,15.0,West,16.1,-,N/A,,Mostly Cloudy,260,2013-11-02 10:00:00
8:00 AM,51.8,41.0,67,29.59,15.0,WSW,13.8,21.9,N/A,,Scattered Clouds,240,2013-11-02 11:00:00
9:00 AM,52,41,57,29.62,15,WSW,12.7,,,,Scattered Clouds,240,2013-11-02 12:00:00
9:00 AM,51.8,41.0,67,29.61,15.0,WSW,12.7,-,N/A,,Partly Cloudy,240,2013-11-02 12:00:00
10:00 AM,53.6,39.2,58,29.63,15.0,WSW,16.1,25.3,N/A,,Scattered Clouds,250,2013-11-02 13:00:00
11:00 AM,53.6,41.0,62,29.62,15.0,WSW,11.5,18.4,N/A,,Scattered Clouds,250,2013-11-02 14:00:00
12:00 PM,55.4,41.0,58,29.62,15.0,WSW,12.7,-,N/A,,Partly Cloudy,250,2013-11-02 15:00:00
1:00 PM,57.2,42.8,59,29.61,15.0,SW,11.5,-,N/A,,Scattered Clouds,220,2013-11-02 16:00:00
2:00 PM,55.4,42.8,63,29.61,15.0,WSW,12.7,-,N/A,,Mostly Cloudy,240,2013-11-02 17:00:00
3:00 PM,55,43,55,29.62,15,WSW,5.8,,,,Scattered Clouds,240,2013-11-02 18:00:00
3:00 PM,55.4,42.8,63,29.61,15.0,WSW,4.6,-,N/A,,Mostly Cloudy,250,2013-11-02 18:00:00
3:52 PM,53.6,46.4,77,29.60,15.0,South,5.8,-,N/A,Rain,Light Rain Showers,170,2013-11-02 18:52:00
4:00 PM,53.6,46.4,77,29.60,15.0,SSE,6.9,-,N/A,Rain,Light Rain Showers,150,2013-11-02 19:00:00
4:23 PM,53.6,46.4,77,29.59,15.0,SSE,5.8,-,N/A,,Mostly Cloudy,160,2013-11-02 19:23:00
5:00 PM,51.8,46.4,82,29.59,15.0,South,6.9,-,N/A,,Mostly Cloudy,170,2013-11-02 20:00:00
6:00 PM,51.8,46.4,82,29.62,15.0,SSW,5.8,-,N/A,,Mostly Cloudy,200,2013-11-02 21:00:00
7:00 PM,50.0,44.6,82,29.60,15.0,SW,4.6,-,N/A,,Mostly Cloudy,230,2013-11-02 22:00:00
8:00 PM,50.0,44.6,82,29.62,15.0,SSW,4.6,-,N/A,,Mostly Cloudy,210,2013-11-02 23:00:00
9:00 PM,49,45,82,29.65,15,WSW,4.6,,,,Partly Cloudy,250,2013-11-03 00:00:00
9:00 PM,50.0,44.6,82,29.65,15.0,WSW,4.6,-,N/A,,Overcast,250,2013-11-03 00:00:00
10:00 PM,50.0,44.6,82,29.64,15.0,WNW,5.8,-,N/A,,Mostly Cloudy,290,2013-11-03 01:00:00
11:00 PM,48.2,42.8,82,29.66,15.0,NW,4.6,-,N/A,,Overcast,320,2013-11-03 02:00:00